RYR12EN LPPR-LPMA

Flight info

Callsign RYR12EN
Flight time 1h 45m
Altitude 35000
Route ASMOV DCT DIRMA DCT VABEM DCT LIDRO
Aircraft B739/M-SDE2E3FGHIRWXY/LB1

Departure

Time 2026-05-04 14:49
Airport Francisco de Sá Carneiro Airport (LPPR)

Arrival

Time 2026-05-04 16:35
Airport Cristiano Ronaldo International Airport (LPMA)
Time Latitude Longitude Altitude Speed Heading
2026-05-04 14:27 41.23550 -8.67233 244 ft 0 kts 109°
2026-05-04 14:41 41.23552 -8.67240 244 ft 3 kts 109°
2026-05-04 14:41 41.23565 -8.67289 243 ft 3 kts 109°
2026-05-04 14:42 41.23583 -8.67333 241 ft 3 kts 172°
2026-05-04 14:42 41.23587 -8.67334 241 ft 0 kts 189°
2026-05-04 14:43 41.23585 -8.67335 240 ft 1 kts 197°
2026-05-04 14:43 41.23564 -8.67350 240 ft 6 kts 211°
2026-05-04 14:44 41.23513 -8.67383 239 ft 10 kts 189°
2026-05-04 14:44 41.23442 -8.67376 239 ft 10 kts 167°
2026-05-04 14:44 41.23372 -8.67370 237 ft 11 kts 191°
2026-05-04 14:44 41.23330 -8.67441 239 ft 11 kts 261°
2026-05-04 14:45 41.23317 -8.67538 234 ft 9 kts 259°
2026-05-04 14:45 41.23317 -8.67540 234 ft 0 kts 259°
2026-05-04 14:46 41.23314 -8.67560 239 ft 6 kts 259°
2026-05-04 14:46 41.23304 -8.67628 235 ft 9 kts 259°
2026-05-04 14:47 41.23309 -8.67710 237 ft 9 kts 302°
2026-05-04 14:47 41.23363 -8.67747 237 ft 9 kts 347°
2026-05-04 14:47 41.23429 -8.67766 239 ft 10 kts 349°
2026-05-04 14:47 41.23433 -8.67767 236 ft 0 kts 349°
2026-05-04 14:48 41.23434 -8.67767 236 ft 1 kts 349°
2026-05-04 14:48 41.23500 -8.67784 234 ft 35 kts 348°
2026-05-04 14:49 41.24000 -8.67916 218 ft 109 kts 348°
2026-05-04 14:49 41.24942 -8.68179 196 ft 165 kts 341°
2026-05-04 14:49 41.26177 -8.68521 481 ft 190 kts 346°
2026-05-04 14:49 41.27477 -8.68834 1291 ft 190 kts 344°
2026-05-04 14:50 41.28754 -8.69155 2226 ft 182 kts 344°
2026-05-04 14:50 41.30049 -8.69497 2757 ft 198 kts 344°
2026-05-04 14:50 41.31490 -8.69901 2916 ft 224 kts 345°
2026-05-04 14:50 41.33056 -8.70358 3348 ft 237 kts 344°
2026-05-04 14:51 41.34725 -8.70810 3833 ft 251 kts 346°
2026-05-04 14:51 41.36426 -8.71271 4603 ft 254 kts 346°
2026-05-04 14:51 41.38188 -8.71757 5414 ft 255 kts 345°
2026-05-04 14:51 41.39823 -8.72570 6122 ft 258 kts 323°
2026-05-04 14:52 41.41069 -8.74302 6861 ft 258 kts 299°
2026-05-04 14:52 41.41651 -8.76512 7614 ft 260 kts 277°
2026-05-04 14:52 41.41541 -8.78944 8323 ft 265 kts 260°
2026-05-04 14:52 41.41177 -8.81368 9051 ft 269 kts 259°
2026-05-04 14:53 41.40797 -8.83815 9765 ft 269 kts 258°
2026-05-04 14:53 41.40041 -8.86099 10057 ft 276 kts 234°
2026-05-04 14:53 41.38706 -8.87999 10067 ft 284 kts 225°
2026-05-04 14:53 41.37209 -8.89706 10074 ft 282 kts 221°
2026-05-04 14:54 41.35671 -8.91336 10163 ft 284 kts 220°
2026-05-04 14:54 41.34074 -8.92996 10395 ft 302 kts 220°
2026-05-04 14:54 41.32356 -8.94779 10568 ft 323 kts 220°
2026-05-04 14:54 41.30537 -8.96668 10821 ft 339 kts 220°
2026-05-04 14:55 41.28659 -8.98617 11385 ft 344 kts 220°
2026-05-04 14:55 41.26766 -9.00581 12070 ft 346 kts 221°
2026-05-04 14:55 41.24861 -9.02560 12774 ft 349 kts 221°
2026-05-04 14:55 41.22943 -9.04554 13483 ft 352 kts 221°
2026-05-04 14:56 41.21009 -9.06566 14135 ft 355 kts 221°
2026-05-04 14:56 41.19060 -9.08592 14784 ft 357 kts 221°
2026-05-04 14:56 41.17095 -9.10635 15454 ft 360 kts 222°
2026-05-04 14:56 41.15116 -9.12691 16141 ft 362 kts 222°
2026-05-04 14:57 41.13128 -9.14754 16817 ft 364 kts 222°
2026-05-04 14:57 41.11153 -9.16805 17472 ft 367 kts 222°
2026-05-04 14:57 41.09137 -9.18896 18128 ft 369 kts 222°
2026-05-04 14:57 41.07105 -9.21001 18717 ft 372 kts 223°
2026-05-04 14:58 41.05059 -9.23119 19293 ft 374 kts 223°
2026-05-04 14:58 41.03004 -9.25246 19883 ft 376 kts 223°
2026-05-04 14:58 41.00936 -9.27383 20461 ft 378 kts 223°
2026-05-04 14:58 40.98860 -9.29528 21033 ft 380 kts 223°
2026-05-04 14:59 40.96770 -9.31686 21562 ft 382 kts 223°
2026-05-04 14:59 40.94661 -9.33862 22064 ft 386 kts 223°
2026-05-04 14:59 40.90399 -9.38252 23177 ft 390 kts 223°
2026-05-04 15:00 40.88248 -9.40463 23707 ft 392 kts 223°
2026-05-04 15:00 40.86083 -9.42689 24057 ft 395 kts 223°
2026-05-04 15:00 40.83921 -9.44907 24075 ft 393 kts 223°
2026-05-04 15:01 40.79572 -9.49369 24090 ft 399 kts 224°
2026-05-04 15:01 40.77380 -9.51613 24091 ft 399 kts 223°
2026-05-04 15:01 40.75187 -9.53857 24099 ft 399 kts 223°
2026-05-04 15:01 40.72990 -9.56103 24078 ft 399 kts 223°
2026-05-04 15:02 40.70786 -9.58355 24171 ft 404 kts 223°
2026-05-04 15:02 40.68559 -9.60628 24647 ft 403 kts 223°
2026-05-04 15:02 40.66348 -9.62881 25215 ft 402 kts 224°
2026-05-04 15:02 40.64133 -9.65138 25669 ft 403 kts 224°
2026-05-04 15:03 40.61905 -9.67407 26058 ft 406 kts 224°
2026-05-04 15:03 40.59663 -9.69690 26441 ft 409 kts 224°
2026-05-04 15:03 40.57401 -9.71991 26839 ft 411 kts 224°
2026-05-04 15:03 40.55133 -9.74294 27252 ft 413 kts 224°
2026-05-04 15:04 40.52849 -9.76611 27642 ft 415 kts 224°
2026-05-04 15:04 40.50586 -9.78906 28013 ft 418 kts 224°
2026-05-04 15:04 40.48248 -9.81274 28346 ft 420 kts 224°
2026-05-04 15:04 40.45963 -9.83585 28732 ft 421 kts 224°
2026-05-04 15:05 40.43636 -9.85939 29054 ft 424 kts 224°
2026-05-04 15:05 40.41289 -9.88310 29384 ft 427 kts 224°
2026-05-04 15:05 40.38937 -9.90682 29849 ft 426 kts 224°
2026-05-04 15:05 40.36597 -9.93038 30401 ft 422 kts 225°
2026-05-04 15:06 40.34275 -9.95371 30844 ft 420 kts 225°
2026-05-04 15:06 40.31954 -9.97706 31184 ft 421 kts 225°
2026-05-04 15:06 40.29631 -10.00043 31496 ft 421 kts 225°
2026-05-04 15:07 40.24987 -10.04707 32273 ft 419 kts 225°
2026-05-04 15:07 40.22676 -10.07023 32636 ft 418 kts 225°
2026-05-04 15:07 40.20366 -10.09339 32973 ft 418 kts 225°
2026-05-04 15:07 40.18057 -10.11651 33319 ft 418 kts 225°
2026-05-04 15:08 40.15751 -10.13958 33679 ft 417 kts 225°
2026-05-04 15:08 40.13450 -10.16256 34016 ft 416 kts 225°
2026-05-04 15:08 40.11148 -10.18556 34290 ft 416 kts 224°
2026-05-04 15:08 40.08843 -10.20856 34511 ft 417 kts 225°
2026-05-04 15:09 40.06531 -10.23162 34667 ft 420 kts 224°
2026-05-04 15:09 40.04207 -10.25479 34893 ft 420 kts 224°
2026-05-04 15:09 40.01885 -10.27788 35112 ft 421 kts 224°
2026-05-04 15:10 39.94847 -10.34779 35108 ft 423 kts 224°
2026-05-04 15:11 39.88666 -10.40895 35112 ft 417 kts 224°
2026-05-04 15:11 39.84056 -10.45453 35117 ft 415 kts 224°
2026-05-04 15:12 39.79458 -10.49993 35121 ft 415 kts 224°
2026-05-04 15:12 39.74866 -10.54520 35113 ft 414 kts 224°
2026-05-04 15:13 39.70263 -10.59049 35108 ft 415 kts 224°
2026-05-04 15:13 39.65643 -10.63588 35121 ft 417 kts 224°
2026-05-04 15:14 39.60998 -10.68142 35124 ft 420 kts 224°
2026-05-04 15:14 39.56327 -10.72713 35125 ft 422 kts 224°
2026-05-04 15:15 39.51631 -10.77300 35092 ft 423 kts 224°
2026-05-04 15:15 39.46928 -10.81886 35113 ft 424 kts 224°
2026-05-04 15:16 39.39856 -10.88766 35128 ft 424 kts 224°
2026-05-04 15:17 39.32789 -10.95624 35118 ft 423 kts 224°
2026-05-04 15:17 39.25775 -11.02411 35120 ft 420 kts 224°
2026-05-04 15:18 39.21100 -11.06927 35125 ft 419 kts 224°
2026-05-04 15:19 39.14084 -11.13690 35128 ft 417 kts 224°
2026-05-04 15:19 39.07118 -11.20379 35130 ft 416 kts 224°
2026-05-04 15:20 39.02482 -11.24824 35112 ft 415 kts 224°
2026-05-04 15:20 38.97881 -11.29231 35126 ft 415 kts 224°
2026-05-04 15:21 38.93248 -11.33662 35119 ft 415 kts 224°
2026-05-04 15:22 38.86295 -11.40299 35138 ft 416 kts 224°
2026-05-04 15:22 38.79315 -11.46944 35137 ft 417 kts 224°
2026-05-04 15:23 38.74646 -11.51379 35130 ft 417 kts 224°
2026-05-04 15:23 38.69975 -11.55809 35135 ft 418 kts 224°
2026-05-04 15:24 38.60611 -11.64667 35139 ft 419 kts 224°
2026-05-04 15:25 38.55919 -11.69094 35136 ft 419 kts 224°
2026-05-04 15:26 38.48884 -11.75718 35142 ft 418 kts 224°
2026-05-04 15:26 38.41854 -11.82321 35142 ft 418 kts 224°
2026-05-04 15:27 38.34832 -11.88901 35150 ft 417 kts 224°
2026-05-04 15:28 38.27812 -11.95463 35120 ft 417 kts 223°
2026-05-04 15:29 38.20802 -12.01999 35139 ft 416 kts 223°
2026-05-04 15:30 38.04446 -12.17190 35147 ft 416 kts 223°
2026-05-04 15:31 37.97428 -12.23681 35142 ft 416 kts 222°
2026-05-04 15:32 37.85691 -12.34504 35605 ft 417 kts 222°
2026-05-04 15:33 37.81030 -12.38783 36315 ft 412 kts 222°
2026-05-04 15:34 37.74058 -12.45183 36920 ft 414 kts 221°
2026-05-04 15:34 37.71735 -12.47311 37163 ft 412 kts 221°
2026-05-04 15:34 37.67065 -12.51586 37149 ft 414 kts 221°
2026-05-04 15:35 37.60099 -12.57943 37152 ft 410 kts 221°
2026-05-04 15:36 37.53218 -12.64212 37154 ft 407 kts 221°
2026-05-04 15:36 37.48623 -12.68392 37144 ft 409 kts 221°
2026-05-04 15:37 37.43961 -12.72630 37169 ft 417 kts 221°
2026-05-04 15:37 37.39228 -12.76922 37150 ft 420 kts 221°
2026-05-04 15:38 37.34482 -12.81213 37160 ft 420 kts 221°
2026-05-04 15:38 37.29730 -12.85505 37151 ft 421 kts 221°
2026-05-04 15:39 37.25007 -12.89765 37153 ft 421 kts 221°
2026-05-04 15:40 37.17888 -12.96173 37148 ft 419 kts 221°
2026-05-04 15:40 37.13154 -13.00426 37154 ft 418 kts 221°
2026-05-04 15:41 37.08431 -13.04663 37152 ft 417 kts 221°
2026-05-04 15:41 37.03716 -13.08887 37159 ft 416 kts 221°
2026-05-04 15:42 36.99009 -13.13096 37157 ft 416 kts 221°
2026-05-04 15:42 36.94311 -13.17292 37150 ft 414 kts 221°
2026-05-04 15:43 36.89622 -13.21472 37159 ft 414 kts 221°
2026-05-04 15:43 36.84938 -13.25642 37157 ft 413 kts 221°
2026-05-04 15:44 36.80254 -13.29806 37159 ft 413 kts 221°
2026-05-04 15:44 36.75573 -13.33961 37159 ft 413 kts 221°
2026-05-04 15:45 36.70890 -13.38110 37131 ft 413 kts 221°
2026-05-04 15:45 36.66213 -13.42247 37146 ft 412 kts 221°
2026-05-04 15:46 36.61541 -13.46374 37165 ft 412 kts 221°
2026-05-04 15:46 36.56871 -13.50494 37160 ft 411 kts 221°
2026-05-04 15:47 36.52196 -13.54612 37162 ft 411 kts 221°
2026-05-04 15:47 36.47556 -13.58692 37160 ft 411 kts 221°
2026-05-04 15:48 36.42885 -13.62794 37157 ft 411 kts 221°
2026-05-04 15:48 36.35881 -13.68933 37160 ft 411 kts 220°
2026-05-04 15:49 36.31213 -13.73016 37164 ft 410 kts 220°
2026-05-04 15:49 36.26541 -13.77098 37163 ft 411 kts 220°
2026-05-04 15:50 36.21871 -13.81171 37167 ft 410 kts 220°
2026-05-04 15:50 36.17198 -13.85241 37149 ft 410 kts 220°
2026-05-04 15:51 36.12531 -13.89299 37161 ft 410 kts 220°
2026-05-04 15:51 36.07860 -13.93354 37167 ft 410 kts 220°
2026-05-04 15:52 36.03194 -13.97401 37166 ft 410 kts 220°
2026-05-04 15:52 35.98555 -14.01417 37163 ft 410 kts 220°
2026-05-04 15:53 35.93880 -14.05459 37164 ft 410 kts 220°
2026-05-04 15:53 35.89208 -14.09491 37156 ft 410 kts 220°
2026-05-04 15:54 35.84535 -14.13519 37158 ft 410 kts 220°
2026-05-04 15:54 35.79863 -14.17540 37164 ft 409 kts 220°
2026-05-04 15:55 35.75192 -14.21555 37163 ft 409 kts 220°
2026-05-04 15:55 35.70516 -14.25568 37164 ft 410 kts 220°
2026-05-04 15:56 35.66628 -14.28900 37160 ft 410 kts 220°
2026-05-04 15:56 35.61948 -14.32906 37152 ft 410 kts 219°
2026-05-04 15:57 35.57268 -14.36906 37157 ft 409 kts 219°
2026-05-04 15:57 35.52596 -14.40892 37160 ft 409 kts 219°
2026-05-04 15:58 35.47923 -14.44874 37160 ft 408 kts 219°
2026-05-04 15:58 35.43256 -14.48846 37157 ft 408 kts 219°
2026-05-04 15:59 35.38591 -14.52810 37159 ft 408 kts 219°
2026-05-04 15:59 35.33930 -14.56765 37149 ft 407 kts 219°
2026-05-04 16:00 35.29283 -14.60702 37153 ft 406 kts 219°
2026-05-04 16:00 35.24648 -14.64623 37158 ft 405 kts 219°
2026-05-04 16:01 35.20021 -14.68533 37157 ft 404 kts 219°
2026-05-04 16:01 35.15400 -14.72432 37159 ft 403 kts 219°
2026-05-04 16:02 35.10781 -14.76324 37157 ft 403 kts 219°
2026-05-04 16:03 35.03886 -14.82123 37158 ft 403 kts 219°
2026-05-04 16:03 34.99268 -14.86001 37159 ft 403 kts 219°
2026-05-04 16:04 34.94646 -14.89876 37159 ft 403 kts 219°
2026-05-04 16:04 34.80989 -15.01296 37136 ft 405 kts 218°
2026-05-04 16:05 34.71698 -15.09038 37156 ft 405 kts 218°
2026-05-04 16:06 34.61409 -15.17586 37163 ft 406 kts 218°
2026-05-04 16:07 34.52063 -15.25328 37147 ft 407 kts 217°
2026-05-04 16:08 34.42710 -15.33055 37148 ft 407 kts 217°
2026-05-04 16:09 34.30962 -15.42733 35917 ft 414 kts 218°
2026-05-04 16:09 34.26264 -15.46587 34927 ft 403 kts 218°
2026-05-04 16:10 34.21665 -15.50358 33869 ft 396 kts 218°
2026-05-04 16:11 34.14934 -15.55872 32309 ft 384 kts 218°
2026-05-04 16:11 34.12734 -15.57671 31818 ft 380 kts 218°
2026-05-04 16:12 34.06246 -15.62974 30401 ft 371 kts 218°
2026-05-04 16:12 33.99893 -15.68156 28851 ft 363 kts 218°
2026-05-04 16:13 33.95740 -15.71537 27909 ft 357 kts 217°
2026-05-04 16:13 33.91658 -15.74857 26991 ft 352 kts 217°
2026-05-04 16:14 33.87625 -15.78134 26083 ft 348 kts 217°
2026-05-04 16:14 33.83636 -15.81372 25199 ft 345 kts 217°
2026-05-04 16:15 33.77677 -15.86202 23830 ft 344 kts 217°
2026-05-04 16:16 33.73746 -15.89385 22853 ft 341 kts 217°
2026-05-04 16:16 33.67889 -15.94117 21495 ft 335 kts 217°
2026-05-04 16:17 33.63983 -15.97196 20380 ft 340 kts 215°
2026-05-04 16:18 33.58037 -16.01722 19109 ft 334 kts 216°
2026-05-04 16:18 33.56040 -16.03245 18260 ft 346 kts 214°
2026-05-04 16:19 33.50174 -16.07719 17390 ft 325 kts 216°
2026-05-04 16:19 33.46376 -16.10618 16437 ft 324 kts 215°
2026-05-04 16:20 33.40743 -16.14915 15341 ft 317 kts 214°
2026-05-04 16:20 33.37030 -16.17743 14288 ft 316 kts 214°
2026-05-04 16:21 33.31600 -16.21870 13266 ft 298 kts 214°
2026-05-04 16:22 33.28125 -16.24509 12338 ft 294 kts 214°
2026-05-04 16:22 33.23105 -16.28317 11416 ft 276 kts 214°
2026-05-04 16:23 33.18287 -16.31971 10501 ft 271 kts 213°
2026-05-04 16:24 33.11952 -16.36763 8627 ft 268 kts 213°
2026-05-04 16:25 33.08819 -16.39129 7794 ft 264 kts 213°
2026-05-04 16:26 33.02691 -16.43759 6174 ft 258 kts 212°
2026-05-04 16:26 32.98188 -16.47158 4981 ft 253 kts 212°
2026-05-04 16:27 32.95254 -16.49370 4473 ft 245 kts 212°
2026-05-04 16:28 32.91356 -16.52686 4188 ft 217 kts 222°
2026-05-04 16:28 32.88185 -16.56149 3743 ft 196 kts 221°
2026-05-04 16:29 32.84298 -16.60312 3011 ft 185 kts 221°
2026-05-04 16:30 32.81594 -16.63195 2927 ft 169 kts 221°
2026-05-04 16:31 32.79867 -16.65041 2566 ft 160 kts 221°
2026-05-04 16:31 32.77505 -16.67566 1997 ft 146 kts 220°
2026-05-04 16:32 32.75193 -16.70032 1468 ft 147 kts 222°
2026-05-04 16:33 32.73800 -16.71912 1125 ft 156 kts 233°
2026-05-04 16:33 32.72606 -16.73971 913 ft 154 kts 230°
2026-05-04 16:34 32.71158 -16.75828 393 ft 150 kts 223°
2026-05-04 16:34 32.70429 -16.76696 197 ft 148 kts 222°
2026-05-04 16:35 32.69319 -16.77954 168 ft 9 kts 174°
2026-05-04 16:35 32.69290 -16.77897 168 ft 6 kts 94°
2026-05-04 16:36 32.69301 -16.77847 168 ft 7 kts 54°
2026-05-04 16:36 32.69295 -16.77773 168 ft 2 kts 134°
2026-05-04 16:37 32.69285 -16.77762 168 ft 0 kts 137°